User: anonymous   Login
Location: Kalberh�ni
(46.4610°N, 7.2453°E)
Time: 11:22:14
(UTC+00:00)
Language:

Cosmos 2278 Rocket - Orbit

View from above orbital plane
View from above orbital plane
View from above satellite
View from above satellite

Ground track
Ground track

The orbit data is extracted from the following two-line orbital elements,

1 23088U 94023B   21270.92352893 -.00000148  00000-0 -52010-4 0  9999
2 23088  70.9990 239.9225 0005764 257.2408 102.8070 14.14699285416423
Epoch (UTC): 27 September 2021 22:09:52
Eccentricity: 0.0005764
inclination: 70.9990°
perigee height: 839 km
apogee height: 847 km
right ascension of ascending node: 239.9225°
argument of perigee: 257.2408°
revolutions per day: 14.14699285
mean anomaly at epoch: 102.8070°
orbit number at epoch: 41642

The dashed part of the orbit path shows where the satellite is in the earth's shadow,  

DLR